Retour au catalogue

STARLINK-6210

ActifCommunicationsVLEO
NORAD 56485·PAYLOAD·🇺🇸 United States

Lancé May 10, 2023 depuis Vandenberg Space Force Base

Loading…

Prochains Passages (prochaines 24 heures)

TLE

FraisSource: CelesTrak SupGP

Époque: Sep 14, 2026, 22:31 UTC

1 56485C 23064AP  26257.93868056  .00052494  00000+0  43983-2 0  2579
2 56485  70.0021   7.1128 0003184 272.7161   7.2316 14.98311672    13

Suivez STARLINK-6210 en temps réel avec AllMySat

Download on the App Store